Theta_e
310 309 310 316 314 313 313 312 312 311 312 310 307 304 304 303 304 308 309 310 313 316 316 316 316 319 318 318 321 320 320 319 320 323 323 324 325 326 326 326 327 327 328 326 328 331 331 327 327 333 333 330 329 330
313 310 310 315 314 313 313 312 312 311 312 309 306 304 304 303 304 308 313 311 311 315 316 313 314 314 315 316 319 319 320 319 320 321 321 320 321 320 323 324 325 325 327 328 326 327 326 325 328 326 327 328 328 328
316 311 311 315 313 312 312 313 311 311 311 308 305 304 303 303 304 309 312 311 313 316 318 317 318 315 314 314 315 321 320 319 321 319 322 322 325 322 324 322 321 320 321 323 323 321 321 321 321 322 325 325 325 325
317 313 312 315 313 312 312 312 312 312 310 307 304 303 303 303 305 310 313 311 313 314 320 319 314 315 314 314 315 315 316 316 318 320 323 324 324 323 324 324 325 324 323 324 324 323 325 324 323 324 324 324 324 324
318 313 312 314 312 311 311 312 312 311 309 306 304 303 303 304 306 310 312 311 311 315 317 316 315 315 315 316 317 316 316 318 320 322 323 324 323 323 323 323 324 323 323 324 327 326 328 327 326 324 326 326 326 326
317 312 313 313 311 310 310 312 311 310 308 305 303 303 304 305 307 312 318 312 311 311 318 320 316 318 318 319 319 318 318 319 320 321 323 323 321 322 324 324 324 322 322 322 324 322 322 322 324 325 326 327 326 326
317 312 313 312 311 310 311 311 311 309 307 304 303 303 305 306 308 312 316 313 310 311 317 319 321 320 319 321 320 320 317 320 321 323 324 324 324 323 325 328 325 323 322 323 323 324 325 326 326 326 325 325 325 326
312 312 314 312 310 310 311 311 310 308 306 303 303 304 307 309 310 314 313 312 310 313 315 321 322 322 320 323 324 322 325 324 325 326 325 326 326 324 326 325 325 323 323 323 323 323 323 324 325 326 325 325 327 328
312 313 313 311 310 310 311 311 309 307 304 303 305 308 310 312 315 316 312 311 311 314 319 319 322 324 321 323 323 324 324 327 325 327 327 327 328 329 326 325 323 323 324 325 324 325 325 324 326 326 325 323 325 328
313 313 313 311 309 310 311 310 308 305 303 307 310 314 316 315 313 312 314 318 318 317 316 321 320 324 322 323 326 326 325 327 328 328 325 328 328 325 324 322 322 323 324 324 325 325 324 324 324 323 323 322 322 321
313 313 312 310 309 310 311 309 306 303 306 310 313 315 311 309 314 316 319 320 320 322 321 322 322 323 321 326 327 325 327 326 329 328 327 328 327 325 323 321 322 322 320 321 320 321 321 319 318 318 318 318 319 319
313 313 311 309 309 310 311 308 304 303 308 308 308 308 310 314 315 318 320 320 321 323 322 323 323 322 323 324 327 325 326 325 329 324 328 329 324 324 322 323 321 318 316 317 317 318 316 316 316 316 316 317 318 319
312 312 311 309 310 310 310 307 303 303 306 307 310 312 313 314 318 317 319 322 325 323 323 324 324 324 325 324 324 325 327 327 324 328 329 327 323 323 323 322 319 316 313 314 315 316 315 315 314 315 316 317 317 317
311 311 309 309 310 310 308 304 303 303 307 311 312 315 314 316 315 317 319 322 322 323 324 323 322 323 323 325 324 326 325 326 327 329 329 326 324 324 323 321 319 316 314 314 314 315 316 316 317 317 317 316 316 316
311 309 309 309 310 309 306 304 303 304 309 313 314 319 315 313 313 313 315 317 318 320 320 321 321 322 323 325 324 325 327 327 327 329 327 326 325 325 325 322 319 317 314 313 312 314 315 316 318 316 315 314 314 314
309 309 309 309 308 306 304 303 304 305 309 311 314 316 315 316 314 314 315 317 318 319 320 320 321 324 325 325 326 326 326 326 328 326 325 326 327 326 326 323 319 316 313 311 312 313 314 314 315 316 315 314 315 314
309 308 308 308 306 304 303 304 305 307 309 310 314 313 314 315 315 315 315 316 316 320 321 319 320 323 325 327 327 327 327 326 325 324 325 327 326 326 326 325 319 316 313 312 312 312 312 312 312 314 317 315 316 314
307 307 306 305 304 303 305 306 308 308 310 312 313 311 311 311 312 314 314 314 316 318 320 319 318 321 323 325 326 325 324 324 324 324 327 327 326 325 326 327 321 316 313 312 312 311 311 311 312 312 313 313 313 313
308 307 306 304 304 304 305 305 306 310 312 312 312 311 311 311 310 311 313 314 315 316 319 319 318 319 319 320 322 323 322 323 323 324 327 325 324 326 326 327 322 318 315 314 312 311 311 310 310 310 311 312 313 312
307 306 304 304 306 307 307 308 307 309 312 311 310 311 311 312 313 313 313 315 316 318 320 320 319 318 318 318 319 320 322 324 324 326 326 324 325 327 325 326 323 319 317 313 311 310 311 311 310 310 309 309 311 312
304 304 304 305 305 305 306 310 311 312 311 312 312 312 313 313 314 315 316 316 319 320 320 319 319 319 317 318 318 318 321 323 323 324 328 330 325 324 324 325 325 320 318 314 312 311 310 310 310 309 309 308 308 309
305 305 305 305 306 307 308 308 310 310 310 312 311 312 314 315 315 316 316 318 319 319 319 319 318 318 319 321 319 321 320 323 325 324 323 324 329 325 324 324 322 320 317 314 313 312 310 309 308 310 309 309 308 307
305 305 305 305 308 308 309 308 311 310 311 312 313 314 315 315 315 315 317 316 317 317 317 317 317 318 319 318 321 321 322 324 324 323 325 325 324 324 323 322 321 319 318 314 313 312 311 309 309 309 309 309 308 308
306 308 309 309 309 310 310 312 310 311 312 313 314 316 317 318 319 319 318 317 318 318 320 322 320 321 322 322 322 320 322 323 323 324 324 322 320 318 317 318 319 317 315 313 312 312 311 310 309 309 308 309 308 308
308 309 309 310 311 312 312 313 313 314 315 314 315 316 318 320 322 322 322 321 322 322 322 323 325 325 322 321 321 322 325 323 323 322 320 319 317 315 314 315 314 313 313 313 312 312 311 310 310 309 308 307 308 308
310 310 311 311 311 312 313 315 314 314 314 315 316 316 318 319 319 320 322 322 322 323 324 327 326 325 324 322 323 325 323 320 322 319 318 317 315 314 314 315 314 313 313 313 313 312 311 310 309 309 308 307 306 307
309 311 310 309 310 310 311 312 313 314 316 316 316 316 318 319 320 321 321 322 324 323 320 319 319 319 321 323 323 324 322 318 317 319 319 317 314 314 313 312 313 313 312 312 312 311 310 309 309 308 307 307 307 307
308 308 309 309 310 310 312 313 314 315 316 317 318 318 318 319 322 323 324 322 323 320 320 319 319 318 320 323 323 322 321 318 317 316 312 309 312 312 312 312 311 310 311 311 310 310 309 309 309 308 307 307 307 306
308 308 308 308 309 310 311 312 313 314 315 318 319 318 319 320 319 319 319 320 321 320 320 319 318 318 319 321 324 324 322 318 318 318 318 315 312 312 311 311 310 310 310 309 308 309 309 309 309 308 307 307 307 307
308 307 309 309 310 311 312 312 313 313 313 313 314 316 316 316 315 316 317 318 318 319 319 319 318 318 318 318 323 323 320 319 318 318 320 318 316 314 312 311 311 310 310 310 310 308 306 307 307 308 308 308 308 307
307 307 308 309 310 311 311 311 311 311 312 312 312 313 314 315 314 314 315 315 316 317 318 318 317 317 317 317 318 322 321 319 318 317 315 316 317 315 312 311 312 311 311 311 310 310 309 309 309 309 309 309 308 307
307 308 308 310 310 311 311 312 313 313 313 313 313 313 313 314 316 316 314 315 315 316 316 316 317 316 316 317 317 318 319 318 316 318 315 314 316 316 312 312 312 311 311 310 310 310 310 310 310 310 309 309 309 308
307 308 308 309 310 312 313 313 315 316 316 316 316 315 315 316 316 315 314 314 314 314 314 314 315 316 317 318 318 318 319 319 318 316 313 314 316 317 316 313 312 311 311 310 310 310 310 310 310 308 308 308 308 308
Wind_Speed
12 12 13 11 10 10 9 8 8 8 8 9 11 12 15 16 14 6 3 8 5 3 3 1 0 1 2 1 3 4 5 2 2 1 3 3 4 4 6 4 8 9 7 9 5 10 14 18 10 10 4 4 7 10
12 12 12 10 8 8 8 6 6 7 6 8 9 11 13 14 13 7 3 7 5 4 5 2 4 5 3 4 4 3 4 2 5 2 1 2 3 3 6 9 4 4 5 7 7 11 14 8 4 5 6 8 10 11
13 12 11 9 7 7 7 5 5 4 4 7 8 11 12 13 11 7 4 8 2 2 4 4 4 3 2 7 6 3 3 2 3 4 3 3 3 3 5 5 8 7 5 8 14 11 16 18 17 14 7 11 14 14
14 13 10 8 7 7 7 6 5 3 4 5 7 10 12 11 9 6 4 7 4 3 3 4 3 2 5 2 5 7 1 1 1 3 4 3 4 2 6 8 9 8 8 10 14 15 14 13 15 18 20 18 22 20
15 13 10 8 7 8 8 5 4 3 4 5 7 9 10 9 7 3 2 4 6 5 4 2 3 4 4 5 5 7 9 6 4 3 4 4 3 4 3 4 3 10 9 7 11 20 17 20 22 25 23 23 22 22
15 13 10 9 8 9 7 6 5 4 4 5 7 9 8 7 5 2 4 0 4 6 3 2 3 6 4 4 5 7 7 5 4 4 5 2 2 3 3 4 1 5 8 9 10 12 17 20 22 26 22 21 20 22
14 12 11 9 8 7 7 7 6 5 5 6 7 8 7 6 4 4 4 2 5 5 3 3 4 5 3 5 5 4 4 3 4 3 3 3 1 3 2 3 14 18 13 11 18 17 17 22 15 23 20 27 29 29
13 12 11 10 7 7 7 7 6 5 5 6 8 7 7 4 1 2 0 4 2 4 3 3 2 5 2 4 3 1 3 4 4 2 2 3 1 1 2 10 16 17 17 17 15 16 17 18 20 20 21 20 21 20
12 12 12 10 8 8 7 8 6 5 6 7 7 5 2 2 3 1 3 3 3 4 3 3 3 3 2 1 1 4 2 4 2 3 1 3 3 1 8 16 15 15 12 16 16 16 12 13 16 14 13 15 17 18
12 11 12 10 9 8 9 8 6 5 5 5 1 3 3 1 1 2 2 3 4 4 4 4 1 3 3 1 2 2 2 1 3 2 0 3 2 4 11 9 10 12 14 15 17 14 16 15 18 17 16 16 12 12
13 12 12 11 10 10 11 7 5 4 3 1 2 0 2 1 2 3 2 3 3 4 5 3 3 1 2 3 0 1 1 2 3 4 3 2 1 8 9 9 9 15 17 16 15 16 16 16 15 15 15 15 18 22
14 14 13 12 11 11 11 7 5 2 1 1 1 1 1 3 2 4 3 2 5 2 4 5 4 1 3 1 3 3 2 2 2 1 3 2 2 8 9 12 13 15 17 16 21 16 19 19 20 16 14 15 19 23
16 15 15 13 13 13 11 8 6 4 2 1 2 2 2 3 2 5 6 4 3 4 6 6 6 3 3 4 2 3 4 2 0 3 1 2 2 5 7 9 12 17 18 18 20 20 20 21 23 21 17 21 22 21
16 16 15 14 15 16 13 10 7 4 2 2 3 3 5 5 5 3 3 2 2 1 6 5 3 4 2 4 1 3 2 2 3 2 2 3 0 3 5 7 10 14 15 15 18 20 21 20 20 24 24 24 22 22
16 16 14 15 16 17 14 12 9 5 2 3 3 5 7 4 2 3 4 4 4 1 4 4 2 3 4 3 3 1 3 3 3 2 1 3 3 3 4 6 10 12 12 12 17 18 20 23 22 22 26 26 26 25
16 12 16 17 19 17 15 12 7 2 1 2 5 5 3 4 3 3 6 6 5 3 2 3 3 3 5 3 5 6 2 4 3 0 1 2 5 6 2 4 7 11 13 15 15 17 19 21 23 19 24 26 25 26
21 5 16 21 19 16 16 6 4 3 3 3 5 5 5 4 4 4 3 4 2 5 6 3 4 5 1 4 4 3 2 2 2 3 2 1 4 5 4 1 4 8 10 13 15 17 19 20 19 23 21 26 25 27
4 15 23 22 22 18 6 2 3 4 5 7 5 2 4 5 6 5 4 4 4 4 4 4 1 6 4 3 3 4 3 2 1 4 1 3 6 6 5 2 1 4 7 10 13 15 18 20 19 18 22 25 28 26
16 23 24 25 19 5 4 3 3 3 6 3 5 5 4 6 8 12 7 5 6 5 4 3 5 5 6 4 3 1 2 3 4 4 3 5 4 5 6 4 3 1 5 8 11 13 14 15 17 19 19 21 21 24
15 20 25 22 9 4 4 3 5 3 3 2 3 4 4 5 4 5 7 7 6 4 5 6 9 6 5 2 2 3 2 3 3 4 3 5 4 5 5 4 4 1 3 6 7 12 12 13 16 16 18 19 20 20
19 20 21 13 3 2 3 2 4 3 2 3 2 3 4 5 6 6 7 7 7 5 9 8 8 8 5 4 5 5 4 6 6 4 4 3 6 4 5 5 7 3 3 5 6 7 9 11 12 15 15 17 17 19
11 18 6 7 3 3 4 5 3 1 3 3 2 3 4 4 6 7 5 8 9 9 8 8 7 7 6 8 9 10 8 7 9 9 9 7 4 4 4 4 6 4 0 3 4 6 7 9 11 10 13 14 15 16
16 10 5 6 5 4 3 2 4 3 3 2 2 3 3 3 3 3 5 7 9 11 12 11 12 12 10 11 9 10 10 9 9 9 6 8 7 4 4 4 5 4 2 3 1 3 5 4 7 9 9 11 13 14
8 8 4 4 5 3 3 4 4 3 3 3 3 3 3 4 4 4 6 6 7 4 5 7 10 7 7 8 7 10 11 10 9 7 5 4 3 3 1 3 4 3 0 3 1 1 3 5 7 9 9 9 10 12
2 3 3 3 4 3 5 4 5 4 4 5 3 4 3 3 3 4 5 3 4 5 5 7 6 5 6 5 5 6 5 6 7 4 6 2 1 2 4 4 5 4 3 3 2 0 2 4 5 7 9 11 10 10
2 4 3 6 3 4 3 2 4 5 3 3 4 2 1 3 4 4 2 0 2 3 3 4 4 4 5 6 5 3 6 4 5 6 7 3 1 1 4 5 6 6 4 1 1 1 1 2 4 6 8 7 8 10
3 4 4 3 2 1 4 4 3 4 4 5 3 3 3 4 4 1 1 1 1 4 5 3 1 2 4 5 8 6 4 3 4 3 3 2 3 2 2 3 4 6 4 2 1 1 3 2 3 4 5 7 8 9
3 2 6 4 5 4 3 3 3 4 3 2 3 5 3 2 2 2 3 2 3 5 3 2 1 3 2 5 9 10 6 8 4 1 3 0 3 4 4 6 7 7 5 4 4 3 3 3 3 4 5 6 8 8
4 3 4 6 5 5 5 5 4 3 2 2 3 3 1 1 1 1 3 1 3 5 6 6 3 1 1 4 7 7 6 9 14 14 12 7 8 9 8 8 8 7 7 7 6 4 3 2 3 3 3 4 4 5
4 5 4 4 5 6 5 5 5 5 5 6 6 7 7 7 8 5 6 5 6 7 9 8 6 5 5 2 4 9 9 8 8 16 9 8 12 11 13 11 10 8 7 7 7 6 6 5 4 4 2 2 2 3
2 5 4 5 5 6 7 8 11 10 9 10 9 10 11 9 15 14 13 13 12 11 11 10 10 10 9 7 4 9 7 17 20 13 8 12 8 10 14 13 11 8 7 6 6 6 6 6 5 3 3 3 2 4
5 7 5 5 8 5 5 7 7 9 9 9 11 11 11 10 12 9 15 14 15 14 14 15 14 13 11 10 8 7 9 9 12 9 9 10 11 9 14 14 12 10 8 6 5 5 6 6 4 4 5 4 4 3
6 6 7 7 4 4 5 5 4 5 7 8 8 9 9 11 15 11 13 12 17 16 15 14 13 12 11 10 10 10 11 9 11 14 11 10 10 10 12 14 13 12 9 7 5 5 5 3 2 2 2 3 3 4
Wind_Direction
301 309 319 328 328 336 340 347 351 348 348 358 360 5 6 7 10 36 19 16 355 328 101 221 19 81 146 286 354 51 217 128 14 5 318 33 287 28 274 322 301 297 315 293 291 292 275 10 346 354 15 341 350 345
290 299 311 317 318 328 334 329 337 337 344 352 358 0 2 2 9 31 6 354 340 267 25 257 269 277 280 350 326 62 57 52 25 300 28 282 287 291 322 298 157 279 349 314 308 312 322 346 325 321 312 311 328 328
276 285 299 305 304 315 324 321 328 325 337 347 352 354 356 357 5 21 356 354 311 274 172 206 172 159 206 241 236 294 104 54 99 356 346 13 292 304 305 333 311 287 291 282 303 291 314 313 304 295 280 315 316 311
264 275 287 290 290 302 311 306 294 296 329 341 344 349 351 351 358 19 12 0 345 300 280 124 155 173 176 208 222 235 29 166 304 281 302 299 298 169 304 313 291 304 311 288 281 275 334 299 319 319 313 305 300 297
251 258 272 273 276 290 296 285 270 282 315 329 338 343 345 346 356 33 16 28 26 331 340 92 199 167 187 213 223 217 224 246 262 258 267 290 311 298 290 298 326 3 353 316 304 318 314 306 310 303 296 293 291 291
243 244 254 252 267 287 275 259 247 274 299 316 328 335 337 343 351 278 206 174 11 357 277 216 89 164 178 215 201 202 213 224 253 292 303 291 37 274 293 310 68 245 241 245 275 281 286 279 291 292 292 290 299 298
238 234 240 239 261 272 255 248 240 266 285 305 318 324 323 327 337 297 5 7 324 330 268 237 182 149 182 190 167 165 186 216 265 288 238 301 214 241 262 290 331 330 290 298 303 298 283 283 295 297 299 295 293 282
223 225 228 228 249 255 243 234 238 262 279 296 310 312 313 308 307 241 331 308 302 276 255 263 165 181 210 198 189 201 213 203 186 310 202 252 152 16 255 320 338 324 311 302 303 306 291 288 289 289 288 284 287 282
216 220 222 225 238 236 227 220 241 261 280 296 303 301 290 227 237 56 300 294 262 278 280 237 235 143 176 152 285 175 250 219 114 230 192 278 139 203 353 338 322 316 314 318 313 305 314 330 317 307 301 300 308 288
218 222 220 219 227 221 212 214 239 263 285 305 286 228 199 107 294 321 236 212 202 190 222 257 123 172 271 134 143 244 211 233 222 120 329 234 67 27 5 343 323 325 333 332 332 337 331 324 327 322 313 306 291 292
221 220 215 216 219 215 206 215 235 273 281 230 227 325 28 303 258 236 253 237 166 221 195 219 226 199 129 262 148 256 250 183 238 120 267 130 210 349 343 322 324 334 344 349 345 338 339 332 326 321 318 318 312 307
223 218 214 214 213 205 205 209 210 213 232 241 268 277 257 216 213 251 213 192 225 233 165 195 156 228 124 216 240 174 251 204 238 81 227 214 33 328 343 334 340 346 343 344 349 351 339 328 328 322 320 317 316 320
218 214 208 207 203 198 196 200 201 198 206 316 239 216 214 174 243 227 193 202 217 183 170 175 167 178 158 227 215 226 222 216 212 219 223 171 339 326 352 344 349 354 353 352 350 354 346 339 337 338 334 338 338 337
209 204 200 199 197 194 188 189 186 172 148 239 205 266 222 192 230 211 266 307 50 224 155 183 146 209 166 188 222 236 103 259 229 228 224 182 208 329 351 351 352 357 2 358 355 356 350 353 348 352 348 351 353 348
196 193 193 194 198 187 181 179 174 170 237 232 221 240 220 238 251 274 284 273 230 249 165 172 173 238 174 198 229 228 195 242 230 198 199 110 204 274 336 1 356 0 1 0 0 352 1 2 8 359 358 358 1 355
180 177 194 193 183 176 171 161 150 170 252 262 242 255 234 267 255 248 246 250 228 216 234 249 191 215 214 212 203 207 203 218 134 97 3 157 222 257 331 8 2 1 1 4 4 355 0 5 7 10 7 8 8 6
177 158 176 176 168 160 156 141 142 188 233 232 231 233 253 285 271 270 276 261 198 209 222 206 217 207 169 226 205 225 229 78 31 331 271 134 223 279 287 20 13 2 5 8 7 7 5 1 6 14 16 19 19 16
146 161 166 164 156 147 150 151 194 200 231 239 246 220 217 265 270 260 233 235 225 219 240 233 294 220 227 253 212 161 140 218 3 340 26 245 234 258 272 308 354 2 7 11 7 9 14 11 14 18 17 17 24 21
165 163 167 163 147 129 148 189 217 247 237 262 255 247 251 257 250 253 264 242 247 273 282 218 238 237 235 231 273 76 284 299 302 346 317 230 239 253 257 222 208 307 10 6 4 7 13 18 17 19 18 20 25 24
160 163 164 159 158 149 170 202 205 241 239 202 236 241 234 240 250 237 227 227 215 211 209 226 239 248 233 250 260 264 281 255 293 312 310 235 206 227 276 193 205 155 301 19 35 25 7 15 19 19 21 18 24 27
140 158 164 171 181 256 279 222 204 237 272 250 247 230 254 221 236 226 226 197 211 223 228 231 245 253 261 305 269 265 268 252 276 286 261 273 311 289 287 202 193 214 314 19 13 40 23 14 8 13 19 25 26 25
139 152 123 182 226 216 242 235 283 349 247 261 245 223 255 239 229 216 216 211 229 234 236 253 249 260 249 231 246 233 254 262 257 271 261 255 255 294 275 215 199 218 212 15 18 21 27 20 6 10 15 11 25 34
137 140 154 188 209 196 250 198 231 206 243 234 214 228 220 225 214 155 227 230 240 240 249 253 257 262 260 263 236 234 237 239 259 264 247 256 270 286 239 199 209 221 229 131 15 18 34 14 20 7 15 16 16 24
131 175 194 193 201 235 183 207 202 234 224 230 229 246 215 211 167 223 243 238 230 209 213 221 219 221 211 225 227 218 214 226 247 233 244 227 179 132 253 201 185 190 158 131 168 55 35 25 6 20 22 18 25 24
127 194 164 220 208 228 216 204 205 207 241 213 236 245 209 204 233 228 236 229 205 219 218 202 213 216 235 200 201 201 182 212 226 199 155 178 83 165 183 179 168 122 162 164 145 89 36 3 25 23 29 25 8 30
193 180 200 194 199 221 232 250 210 222 236 232 226 252 230 243 242 244 180 136 239 220 185 176 189 203 226 235 251 161 156 195 204 193 152 179 313 323 163 169 176 155 172 203 347 13 46 19 24 14 30 43 26 20
207 190 200 195 266 260 268 243 255 264 238 216 217 208 222 234 235 87 80 202 128 118 125 113 81 295 262 209 163 146 122 158 144 60 89 142 150 136 142 169 197 112 151 160 157 60 53 73 59 41 36 36 32 29
241 249 213 191 216 222 255 264 218 231 233 237 240 214 229 246 60 26 359 95 139 150 144 138 28 352 271 201 180 164 153 125 92 323 44 151 184 175 143 129 125 125 129 140 126 107 81 76 76 61 56 46 42 32
223 200 214 220 216 228 232 229 243 234 258 272 274 261 316 70 149 346 56 44 191 210 228 229 192 246 260 203 207 185 165 173 192 199 218 223 201 192 182 169 158 153 148 149 156 131 113 82 75 82 70 52 40 33
218 195 212 215 220 229 228 216 256 263 266 276 293 290 272 263 271 290 269 246 239 233 237 247 250 246 268 274 210 191 184 195 235 239 247 227 227 196 184 184 183 176 173 178 175 172 183 185 185 204 234 284 321 355
169 196 228 237 253 251 259 264 262 265 264 263 262 263 265 272 277 276 259 253 251 249 246 241 244 247 253 245 222 193 187 203 227 239 269 264 249 188 188 188 193 182 184 194 203 204 194 215 237 242 241 274 303 288
210 209 226 250 259 259 262 261 251 247 252 247 247 247 250 249 251 264 250 241 242 241 241 243 253 255 242 232 243 236 215 206 211 226 302 236 211 203 196 196 195 189 187 201 214 216 203 241 275 291 288 255 273 295
220 227 236 266 257 236 211 218 241 254 236 244 248 246 241 240 256 260 262 236 242 243 244 247 241 235 230 224 233 230 207 212 195 241 261 200 198 196 190 194 192 192 197 204 196 191 195 214 284 338 299 270 268 281